,,Stat6,,Stat2,,Stat8,,Stat9,,Stat10,,Wind1,,Wind1,
time,status,PA1M_AVG,status,PR1M_SUM,status,RH1M_AVG,status,SR1M_AVG,status,TA1M_AVG,status,W1dAve1m,status,W1sAve1m,
2004-02-18, 00:00:00,VALID,917.377,VALID,0,VALID,100,VALID,0,VALID,20.121,VALID,10,VALID,0.072218,
2004-02-18, 00:01:00,VALID,917.359,VALID,0,VALID,100,VALID,0,VALID,20.1339,VALID,10,VALID,0,
2004-02-18, 00:02:00,VALID,917.33,VALID,0,VALID,100,VALID,-0.0509425,VALID,20.1374,VALID,10,VALID,0.117708,
2004-02-18, 00:03:00,VALID,917.315,VALID,0,VALID,100,VALID,0,VALID,20.1401,VALID,12,VALID,0.328683,
2004-02-18, 00:04:00,VALID,917.316,VALID,0,VALID,100,VALID,-0.0169808,VALID,20.1307,VALID,13,VALID,0.108285,
2004-02-18, 00:05:00,VALID,917.329,VALID,0,VALID,100,VALID,-0.0169808,VALID,20.1275,VALID,13,VALID,0.0109012,
2004-02-18, 00:06:00,VALID,917.347,VALID,0,VALID,100,VALID,0,VALID,20.1175,VALID,12,VALID,0.282315,
2004-02-18, 00:07:00,VALID,917.356,VALID,0,VALID,100,VALID,0,VALID,20.1307,VALID,327,VALID,0.471112,
2004-02-18, 00:08:00,VALID,917.368,VALID,0,VALID,100,VALID,0,VALID,20.1727,VALID,351,VALID,1.07813,
2004-02-18, 00:09:00,VALID,917.369,VALID,0,VALID,100,VALID,-0.0169808,VALID,20.1983,VALID,12,VALID,0.75327,
2004-02-18, 00:10:00,VALID,917.375,VALID,0,VALID,100,VALID,0,VALID,20.208,VALID,25,VALID,0.741616,
2004-02-18, 00:11:00,VALID,917.374,VALID,0,VALID,100,VALID,-0.0169808,VALID,20.251,VALID,26,VALID,0.414971,
2004-02-18, 00:12:00,VALID,917.369,VALID,0,VALID,100,VALID,-0.0339617,VALID,20.2443,VALID,26,VALID,0.426235,
2004-02-18, 00:13:00,VALID,917.368,VALID,0,VALID,100,VALID,-0.0169808,VALID,20.2669,VALID,26,VALID,0.388765,
2004-02-18, 00:14:00,VALID,917.362,VALID,0,VALID,100,VALID,-0.0169808,VALID,20.2696,VALID,26,VALID,0.436928,
2004-02-18, 00:15:00,VALID,917.364,VALID,0,VALID,100,VALID,-0.0169808,VALID,20.2793,VALID,26,VALID,0.410252,
2004-02-18, 00:16:00,VALID,917.344,VALID,0,VALID,100,VALID,-0.0509425,VALID,20.2733,VALID,23,VALID,0.839453,
2004-02-18, 00:17:00,VALID,917.361,VALID,0,VALID,100,VALID,-0.0169808,VALID,20.241,VALID,326,VALID,0.875,
2004-02-18, 00:18:00,VALID,917.358,VALID,0,VALID,100,VALID,-0.0169808,VALID,20.1985,VALID,275,VALID,0.489062,
2004-02-18, 00:19:00,VALID,917.385,VALID,0,VALID,100,VALID,-0.0339617,VALID,20.1894,VALID,295,VALID,0.387891,
2004-02-18, 00:20:00,VALID,917.412,VALID,0,VALID,100,VALID,-0.0339617,VALID,20.1988,VALID,20,VALID,0.737537,
2004-02-18, 00:21:00,VALID,917.425,VALID,0,VALID,100,VALID,-0.0339617,VALID,20.2055,VALID,20,VALID,0.933685,
2004-02-18, 00:22:00,VALID,917.423,VALID,0,VALID,100,VALID,-0.0339617,VALID,20.212,VALID,20,VALID,0.966704,
2004-02-18, 00:23:00,VALID,917.422,VALID,0,VALID,100,VALID,-0.0339617,VALID,20.2182,VALID,18,VALID,1.18005,
2004-02-18, 00:24:00,VALID,917.419,VALID,0,VALID,100,VALID,0,VALID,20.2308,VALID,17,VALID,1.19258,
2004-02-18, 00:25:00,VALID,917.406,VALID,0,VALID,100,VALID,-0.0169808,VALID,20.2502,VALID,18,VALID,1.24591,
2004-02-18, 00:26:00,VALID,917.384,VALID,0,VALID,100,VALID,-0.0339617,VALID,20.2271,VALID,15,VALID,1.14898,
2004-02-18, 00:27:00,VALID,917.367,VALID,0,VALID,100,VALID,-0.0169808,VALID,20.2375,VALID,22,VALID,1.0253,
2004-02-18, 00:28:00,VALID,917.354,VALID,0,VALID,100,VALID,-0.0169808,VALID,20.2276,VALID,16,VALID,0.92242,
2004-02-18, 00:29:00,VALID,917.343,VALID,0,VALID,100,VALID,-0.0509425,VALID,20.2179,VALID,10,VALID,0.918968,
2004-02-18, 00:30:00,VALID,917.32,VALID,0,VALID,100,VALID,-0.0339617,VALID,20.2189,VALID,12,VALID,0.927827,
2004-02-18, 00:31:00,VALID,917.289,VALID,0,VALID,100,VALID,-0.0339617,VALID,20.2324,VALID,11,VALID,0.74707,
2004-02-18, 00:32:00,VALID,917.255,VALID,0,VALID,100,VALID,-0.0679233,VALID,20.2189,VALID,22,VALID,0.962536,
2004-02-18, 00:33:00,VALID,917.209,VALID,0,VALID,100,VALID,-0.0849042,VALID,20.1802,VALID,25,VALID,1.20566,
2004-02-18, 00:34:00,VALID,917.192,VALID,0,VALID,100,VALID,-0.0849042,VALID,20.1777,VALID,25,VALID,1.03452,
2004-02-18, 00:35:00,VALID,917.164,VALID,0,VALID,100,VALID,-0.0849042,VALID,20.1514,VALID,21,VALID,1.07347,
2004-02-18, 00:36:00,VALID,917.137,VALID,0,VALID,100,VALID,-0.0509425,VALID,20.1446,VALID,18,VALID,1.02973,
2004-02-18, 00:37:00,VALID,917.126,VALID,0,VALID,100,VALID,-0.0509425,VALID,20.1484,VALID,5,VALID,1.11833,
2004-02-18, 00:38:00,VALID,917.115,VALID,0,VALID,100,VALID,-0.0339617,VALID,20.1347,VALID,6,VALID,1.05251,
2004-02-18, 00:39:00,VALID,917.111,VALID,0,VALID,100,VALID,-0.0509425,VALID,20.131,VALID,15,VALID,0.975472,
2004-02-18, 00:40:00,VALID,917.088,VALID,0,VALID,100,VALID,-0.0169808,VALID,20.1317,VALID,12,VALID,1.26544,
2004-02-18, 00:41:00,VALID,917.077,VALID,0,VALID,100,VALID,-0.0509425,VALID,20.1188,VALID,3,VALID,1.12936,
2004-02-18, 00:42:00,VALID,917.068,VALID,0,VALID,100,VALID,-0.0679233,VALID,20.1253,VALID,13,VALID,0.895089,
2004-02-18, 00:43:00,VALID,917.056,VALID,0,VALID,100,VALID,-0.0509425,VALID,20.122,VALID,4,VALID,1.00586,
2004-02-18, 00:44:00,VALID,917.048,VALID,0,VALID,100,VALID,-0.0849042,VALID,20.1158,VALID,353,VALID,0.879972,
2004-02-18, 00:45:00,VALID,917.046,VALID,0,VALID,100,VALID,-0.0679233,VALID,20.122,VALID,340,VALID,0.713956,
2004-02-18, 00:46:00,VALID,917.027,VALID,0,VALID,100,VALID,-0.0339617,VALID,20.1225,VALID,348,VALID,0.856707,
2004-02-18, 00:47:00,VALID,917.026,VALID,0,VALID,100,VALID,-0.0849042,VALID,20.1225,VALID,339,VALID,0.690589,
2004-02-18, 00:48:00,VALID,916.988,VALID,0,VALID,100,VALID,-0.0169808,VALID,20.1051,VALID,359,VALID,0.652058,
2004-02-18, 00:49:00,VALID,916.961,VALID,0,VALID,100,VALID,-0.0509425,VALID,20.1255,VALID,344,VALID,0.650981,
2004-02-18, 00:50:00,VALID,916.943,VALID,0,VALID,100,VALID,-0.0339617,VALID,20.1317,VALID,3,VALID,0.854911,
2004-02-18, 00:51:00,VALID,916.935,VALID,0,VALID,100,VALID,-0.0849042,VALID,20.1355,VALID,317,VALID,0.861607,
2004-02-18, 00:52:00,VALID,916.935,VALID,0,VALID,100,VALID,-0.0849042,VALID,20.1325,VALID,338,VALID,0.786735,
2004-02-18, 00:53:00,VALID,916.938,VALID,0,VALID,100,VALID,-0.0509425,VALID,20.122,VALID,318,VALID,0.553013,
2004-02-18, 00:54:00,VALID,916.933,VALID,0,VALID,100,VALID,-0.0679233,VALID,20.1186,VALID,288,VALID,0.416969,
2004-02-18, 00:55:00,VALID,916.934,VALID,0,VALID,100,VALID,-0.0509425,VALID,20.1186,VALID,249,VALID,0.477564,
2004-02-18, 00:56:00,VALID,916.933,VALID,0,VALID,100,VALID,-0.0339617,VALID,20.129,VALID,241,VALID,0.423264,
2004-02-18, 00:57:00,VALID,916.927,VALID,0,VALID,100,VALID,0,VALID,20.132,VALID,235,VALID,0.324805,
2004-02-18, 00:58:00,VALID,916.909,VALID,0,VALID,100,VALID,-0.0509425,VALID,20.1285,VALID,235,VALID,0.037609,
2004-02-18, 00:59:00,VALID,916.898,VALID,0,VALID,100,VALID,0,VALID,20.1384,VALID,285,VALID,0.182106,
2004-02-18, 01:00:00,VALID,916.904,VALID,0,VALID,100,VALID,0,VALID,20.125,VALID,3,VALID,0.114063,
2004-02-18, 01:01:00,VALID,916.891,VALID,0,VALID,100,VALID,-0.0169808,VALID,20.1312,VALID,3,VALID,0,
2004-02-18, 01:02:00,VALID,916.894,VALID,0,VALID,100,VALID,0,VALID,20.1382,VALID,351,VALID,0.203465,
2004-02-18, 01:03:00,VALID,916.888,VALID,0,VALID,100,VALID,-0.0509425,VALID,20.1347,VALID,333,VALID,0.306593,
2004-02-18, 01:04:00,VALID,916.895,VALID,0,VALID,100,VALID,-0.0509425,VALID,20.135,VALID,333,VALID,0.115513,
2004-02-18, 01:05:00,VALID,916.886,VALID,0,VALID,100,VALID,-0.0339617,VALID,20.1218,VALID,333,VALID,0.279687,
2004-02-18, 01:06:00,VALID,916.872,VALID,0,VALID,100,VALID,-0.0679233,VALID,20.1317,VALID,333,VALID,0.093936,
2004-02-18, 01:07:00,VALID,916.871,VALID,0,VALID,100,VALID,-0.0509425,VALID,20.135,VALID,333,VALID,0.159722,
2004-02-18, 01:08:00,VALID,916.866,VALID,0,VALID,100,VALID,-0.0339617,VALID,20.1384,VALID,333,VALID,0.0649771,
2004-02-18, 01:09:00,VALID,916.844,VALID,0,VALID,100,VALID,-0.0339617,VALID,20.1414,VALID,333,VALID,0,
2004-02-18, 01:10:00,VALID,916.828,VALID,0,VALID,100,VALID,-0.0509425,VALID,20.1414,VALID,333,VALID,0,
2004-02-18, 01:11:00,VALID,916.81,VALID,0,VALID,100,VALID,-0.0509425,VALID,20.1546,VALID,333,VALID,0,
2004-02-18, 01:12:00,VALID,916.8,VALID,0,VALID,100,VALID,-0.0679233,VALID,20.1576,VALID,333,VALID,0,
2004-02-18, 01:13:00,VALID,916.779,VALID,0,VALID,100,VALID,-0.0679233,VALID,20.1769,VALID,333,VALID,0,
2004-02-18, 01:14:00,VALID,916.783,VALID,0,VALID,100,VALID,-0.0679233,VALID,20.1802,VALID,333,VALID,0.0572917,
2004-02-18, 01:15:00,VALID,916.784,VALID,0,VALID,100,VALID,-0.0509425,VALID,20.161,VALID,333,VALID,0.296342,
2004-02-18, 01:16:00,VALID,916.772,VALID,0,VALID,100,VALID,-0.0509425,VALID,20.135,VALID,333,VALID,0.418576,
2004-02-18, 01:17:00,VALID,916.78,VALID,0,VALID,100,VALID,-0.0849042,VALID,20.0967,VALID,333,VALID,0.422619,
2004-02-18, 01:18:00,VALID,916.782,VALID,0,VALID,100,VALID,-0.0849042,VALID,20.051,VALID,333,VALID,0.226385,
2004-02-18, 01:19:00,VALID,916.787,VALID,0,VALID,100,VALID,-0.0849042,VALID,20.048,VALID,333,VALID,0,
2004-02-18, 01:20:00,VALID,916.793,VALID,0,VALID,100,VALID,-0.0509425,VALID,20.0445,VALID,333,VALID,0,
2004-02-18, 01:21:00,VALID,916.792,VALID,0,VALID,100,VALID,-0.101885,VALID,20.0612,VALID,333,VALID,0,
2004-02-18, 01:22:00,VALID,916.802,VALID,0,VALID,100,VALID,-0.0679233,VALID,20.0709,VALID,333,VALID,0,
2004-02-18, 01:23:00,VALID,916.792,VALID,0,VALID,100,VALID,-0.0849042,VALID,20.0835,VALID,333,VALID,0,
2004-02-18, 01:24:00,VALID,916.783,VALID,0,VALID,100,VALID,-0.0509425,VALID,20.0999,VALID,333,VALID,0,
2004-02-18, 01:25:00,VALID,916.779,VALID,0,VALID,100,VALID,-0.0679233,VALID,20.1027,VALID,333,VALID,0,
2004-02-18, 01:26:00,VALID,916.753,VALID,0,VALID,100,VALID,-0.0679233,VALID,20.1061,VALID,333,VALID,0,
2004-02-18, 01:27:00,VALID,916.73,VALID,0,VALID,100,VALID,-0.101885,VALID,20.1193,VALID,333,VALID,0.0976563,
2004-02-18, 01:28:00,VALID,916.713,VALID,0,VALID,100,VALID,-0.0339617,VALID,20.1449,VALID,349,VALID,0.539608,
2004-02-18, 01:29:00,VALID,916.688,VALID,0,VALID,100,VALID,-0.0339617,VALID,20.1732,VALID,7,VALID,0.61772,
2004-02-18, 01:30:00,VALID,916.659,VALID,0,VALID,100,VALID,0.0169808,VALID,20.1558,VALID,12,VALID,0.662946,
2004-02-18, 01:31:00,VALID,916.633,VALID,0,VALID,100,VALID,0.0169808,VALID,20.1757,VALID,24,VALID,1.16044,
2004-02-18, 01:32:00,VALID,916.621,VALID,0,VALID,100,VALID,0,VALID,20.1789,VALID,26,VALID,0.964558,
2004-02-18, 01:33:00,VALID,916.597,VALID,0,VALID,100,VALID,-0.0169808,VALID,20.169,VALID,29,VALID,0.605923,
2004-02-18, 01:34:00,VALID,916.568,VALID,0,VALID,100,VALID,0,VALID,20.1521,VALID,28,VALID,0.391369,
2004-02-18, 01:35:00,VALID,916.537,VALID,0,VALID,100,VALID,0.0339617,VALID,20.1531,VALID,28,VALID,0.429324,
2004-02-18, 01:36:00,VALID,916.52,VALID,0,VALID,100,VALID,0.0169808,VALID,20.1692,VALID,28,VALID,0.554869,
2004-02-18, 01:37:00,VALID,916.494,VALID,0,VALID,100,VALID,0.0509425,VALID,20.1533,VALID,28,VALID,0.4871,
2004-02-18, 01:38:00,VALID,916.484,VALID,0,VALID,100,VALID,0.0169808,VALID,20.1178,VALID,28,VALID,0.492746,
2004-02-18, 01:39:00,VALID,916.458,VALID,0,VALID,100,VALID,0,VALID,20.0952,VALID,28,VALID,0.53869,
2004-02-18, 01:40:00,VALID,916.444,VALID,0,VALID,100,VALID,0,VALID,20.0532,VALID,28,VALID,0.463224,
2004-02-18, 01:41:00,VALID,916.436,VALID,0,VALID,100,VALID,0,VALID,20.0239,VALID,28,VALID,0.368786,
2004-02-18, 01:42:00,VALID,916.403,VALID,0,VALID,100,VALID,0,VALID,19.9879,VALID,28,VALID,0.213246,
2004-02-18, 01:43:00,VALID,916.397,VALID,0,VALID,100,VALID,0.0339617,VALID,19.972,VALID,28,VALID,0.173785,
2004-02-18, 01:44:00,VALID,916.377,VALID,0,VALID,100,VALID,0.0339617,VALID,19.9496,VALID,28,VALID,0.0476372,
2004-02-18, 01:45:00,VALID,916.367,VALID,0,VALID,100,VALID,0.0679233,VALID,19.9494,VALID,28,VALID,0,
2004-02-18, 01:46:00,VALID,916.368,VALID,0,VALID,100,VALID,0.0169808,VALID,19.9561,VALID,28,VALID,0,
2004-02-18, 01:47:00,VALID,916.374,VALID,0,VALID,100,VALID,0.0339617,VALID,19.9362,VALID,28,VALID,0,
2004-02-18, 01:48:00,VALID,916.372,VALID,0,VALID,100,VALID,0,VALID,19.927,VALID,28,VALID,0.130269,
2004-02-18, 01:49:00,VALID,916.359,VALID,0,VALID,100,VALID,0.0509425,VALID,19.9171,VALID,28,VALID,0.0328852,
2004-02-18, 01:50:00,VALID,916.336,VALID,0,VALID,100,VALID,0,VALID,19.8982,VALID,28,VALID,0,
2004-02-18, 01:51:00,VALID,916.326,VALID,0,VALID,100,VALID,-0.0169808,VALID,19.9044,VALID,30,VALID,0.122869,
2004-02-18, 01:52:00,VALID,916.326,VALID,0,VALID,100,VALID,0,VALID,19.8947,VALID,95,VALID,0.455273,
2004-02-18, 01:53:00,VALID,916.307,VALID,0,VALID,100,VALID,0.0169808,VALID,19.9044,VALID,131,VALID,0.582292,
2004-02-18, 01:54:00,VALID,916.282,VALID,0,VALID,100,VALID,0,VALID,19.9009,VALID,149,VALID,0.593205,
2004-02-18, 01:55:00,VALID,916.271,VALID,0,VALID,100,VALID,0,VALID,19.898,VALID,149,VALID,0.518111,
2004-02-18, 01:56:00,VALID,916.251,VALID,0,VALID,100,VALID,0.0169808,VALID,19.8912,VALID,149,VALID,0.423363,
2004-02-18, 01:57:00,VALID,916.231,VALID,0,VALID,100,VALID,-0.0169808,VALID,19.8883,VALID,149,VALID,0.451723,
2004-02-18, 01:58:00,VALID,916.213,VALID,0,VALID,100,VALID,0.0169808,VALID,19.8915,VALID,149,VALID,0.207292,
2004-02-18, 01:59:00,VALID,916.212,VALID,0,VALID,100,VALID,0,VALID,19.8952,VALID,149,VALID,0.0140224,
2004-02-18, 02:00:00,VALID,916.213,VALID,0,VALID,100,VALID,0.0339617,VALID,19.8816,VALID,149,VALID,0,
2004-02-18, 02:01:00,VALID,916.196,VALID,0,VALID,100,VALID,0.0169808,VALID,19.9009,VALID,149,VALID,0,
2004-02-18, 02:02:00,VALID,916.188,VALID,0,VALID,100,VALID,0.0169808,VALID,19.9109,VALID,149,VALID,0.018532,
2004-02-18, 02:03:00,VALID,916.157,VALID,0,VALID,100,VALID,0.0169808,VALID,19.9138,VALID,149,VALID,0,
2004-02-18, 02:04:00,VALID,916.139,VALID,0,VALID,100,VALID,0.0169808,VALID,19.9273,VALID,149,VALID,0,
2004-02-18, 02:05:00,VALID,916.121,VALID,0,VALID,100,VALID,0.0169808,VALID,19.9141,VALID,149,VALID,0,
2004-02-18, 02:06:00,VALID,916.116,VALID,0,VALID,100,VALID,0,VALID,19.9111,VALID,149,VALID,0,
2004-02-18, 02:07:00,VALID,916.109,VALID,0,VALID,100,VALID,0,VALID,19.8977,VALID,149,VALID,0.0133168,
2004-02-18, 02:08:00,VALID,916.087,VALID,0,VALID,100,VALID,0.0169808,VALID,19.8753,VALID,149,VALID,0,
2004-02-18, 02:09:00,VALID,916.073,VALID,0,VALID,100,VALID,0.0169808,VALID,19.8686,VALID,149,VALID,0,
2004-02-18, 02:10:00,VALID,916.061,VALID,0,VALID,100,VALID,0.0169808,VALID,19.8629,VALID,149,VALID,0.000558036,
2004-02-18, 02:11:00,VALID,916.042,VALID,0,VALID,100,VALID,0.0339617,VALID,19.8465,VALID,149,VALID,0.0264295,
2004-02-18, 02:12:00,VALID,916.034,VALID,0,VALID,100,VALID,0,VALID,19.8239,VALID,149,VALID,0.206845,
2004-02-18, 02:13:00,VALID,916.018,VALID,0,VALID,100,VALID,0.0339617,VALID,19.8075,VALID,149,VALID,0.198552,
2004-02-18, 02:14:00,VALID,916.01,VALID,0,VALID,100,VALID,-0.0509425,VALID,19.7889,VALID,149,VALID,0.370094,
2004-02-18, 02:15:00,VALID,916.001,VALID,0,VALID,100,VALID,-0.0849042,VALID,19.774,VALID,149,VALID,0.339453,
2004-02-18, 02:16:00,VALID,915.998,VALID,0,VALID,100,VALID,-0.101885,VALID,19.7412,VALID,149,VALID,0.0466845,
2004-02-18, 02:17:00,VALID,915.995,VALID,0,VALID,100,VALID,-0.0679233,VALID,19.7124,VALID,149,VALID,0,
2004-02-18, 02:18:00,VALID,915.977,VALID,0,VALID,100,VALID,-0.101885,VALID,19.6898,VALID,149,VALID,0,
2004-02-18, 02:19:00,VALID,915.978,VALID,0,VALID,100,VALID,-0.0679233,VALID,19.6573,VALID,149,VALID,0,
2004-02-18, 02:20:00,VALID,915.952,VALID,0,VALID,100,VALID,-0.0849042,VALID,19.6513,VALID,149,VALID,0,
2004-02-18, 02:21:00,VALID,915.918,VALID,0,VALID,100,VALID,-0.0849042,VALID,19.6414,VALID,149,VALID,0.0189732,
2004-02-18, 02:22:00,VALID,915.909,VALID,0,VALID,100,VALID,-0.0849042,VALID,19.6578,VALID,149,VALID,0.0685976,
2004-02-18, 02:23:00,VALID,915.886,VALID,0,VALID,100,VALID,-0.0849042,VALID,19.6421,VALID,149,VALID,0,
2004-02-18, 02:24:00,VALID,915.879,VALID,0,VALID,100,VALID,-0.101885,VALID,19.6384,VALID,149,VALID,0,
2004-02-18, 02:25:00,VALID,915.866,VALID,0,VALID,100,VALID,-0.0849042,VALID,19.6155,VALID,149,VALID,0,
2004-02-18, 02:26:00,VALID,915.858,VALID,0,VALID,100,VALID,-0.101885,VALID,19.5932,VALID,149,VALID,0,
2004-02-18, 02:27:00,VALID,915.844,VALID,0,VALID,100,VALID,-0.101885,VALID,19.584,VALID,149,VALID,0,
2004-02-18, 02:28:00,VALID,915.828,VALID,0,VALID,100,VALID,-0.101885,VALID,19.5646,VALID,149,VALID,0,
2004-02-18, 02:29:00,VALID,915.823,VALID,0,VALID,100,VALID,-0.0509425,VALID,19.5338,VALID,149,VALID,0.0892857,
2004-02-18, 02:30:00,VALID,915.836,VALID,0,VALID,100,VALID,0,VALID,19.5236,VALID,116,VALID,0.439098,
2004-02-18, 02:31:00,VALID,915.84,VALID,0,VALID,100,VALID,-0.0169808,VALID,19.5018,VALID,52,VALID,0.504464,
2004-02-18, 02:32:00,VALID,915.83,VALID,0,VALID,100,VALID,-0.0169808,VALID,19.4889,VALID,21,VALID,0.678354,
2004-02-18, 02:33:00,VALID,915.832,VALID,0,VALID,100,VALID,0,VALID,19.505,VALID,11,VALID,0.54851,
2004-02-18, 02:34:00,VALID,915.838,VALID,0,VALID,100,VALID,0,VALID,19.5306,VALID,355,VALID,0.535689,
2004-02-18, 02:35:00,VALID,915.85,VALID,0,VALID,100,VALID,0,VALID,19.5435,VALID,352,VALID,0.168423,
2004-02-18, 02:36:00,VALID,915.851,VALID,0,VALID,100,VALID,-0.0169808,VALID,19.5375,VALID,352,VALID,0,
2004-02-18, 02:37:00,VALID,915.852,VALID,0,VALID,100,VALID,0.0169808,VALID,19.5211,VALID,352,VALID,0,
2004-02-18, 02:38:00,VALID,915.855,VALID,0,VALID,100,VALID,0,VALID,19.5015,VALID,352,VALID,0.066311,
2004-02-18, 02:39:00,VALID,915.849,VALID,0,VALID,100,VALID,0,VALID,19.5144,VALID,352,VALID,0.0106707,
2004-02-18, 02:40:00,VALID,915.845,VALID,0,VALID,100,VALID,-0.0169808,VALID,19.4819,VALID,352,VALID,0.320126,
2004-02-18, 02:41:00,VALID,915.848,VALID,0,VALID,100,VALID,0,VALID,19.5023,VALID,352,VALID,0.280107,
2004-02-18, 02:42:00,VALID,915.836,VALID,0,VALID,100,VALID,0,VALID,19.4787,VALID,352,VALID,0.300305,
2004-02-18, 02:43:00,VALID,915.847,VALID,0,VALID,100,VALID,0,VALID,19.4374,VALID,352,VALID,0.252362,
2004-02-18, 02:44:00,VALID,915.838,VALID,0,VALID,100,VALID,-0.0169808,VALID,19.4372,VALID,352,VALID,0.249414,
2004-02-18, 02:45:00,VALID,915.826,VALID,0,VALID,100,VALID,-0.0169808,VALID,19.431,VALID,352,VALID,0.142857,
2004-02-18, 02:46:00,VALID,915.831,VALID,0,VALID,100,VALID,0,VALID,19.4305,VALID,352,VALID,0.472098,
2004-02-18, 02:47:00,VALID,915.829,VALID,0,VALID,100,VALID,0,VALID,19.466,VALID,352,VALID,0.233103,
2004-02-18, 02:48:00,VALID,915.843,VALID,0,VALID,100,VALID,0.0169808,VALID,19.4692,VALID,352,VALID,0.0327035,
2004-02-18, 02:49:00,VALID,915.836,VALID,0,VALID,100,VALID,0,VALID,19.4789,VALID,352,VALID,0,
2004-02-18, 02:50:00,VALID,915.855,VALID,0,VALID,100,VALID,-0.0169808,VALID,19.4889,VALID,352,VALID,0,
2004-02-18, 02:51:00,VALID,915.846,VALID,0,VALID,100,VALID,0,VALID,19.5152,VALID,352,VALID,0.0555753,
2004-02-18, 02:52:00,VALID,915.841,VALID,0,VALID,100,VALID,-0.0169808,VALID,19.5214,VALID,352,VALID,0.0332961,
2004-02-18, 02:53:00,VALID,915.839,VALID,0,VALID,100,VALID,-0.0339617,VALID,19.5182,VALID,352,VALID,0.0120046,
2004-02-18, 02:54:00,VALID,915.814,VALID,0,VALID,100,VALID,0,VALID,19.5154,VALID,352,VALID,0,
2004-02-18, 02:55:00,VALID,915.818,VALID,0,VALID,100,VALID,0,VALID,19.4988,VALID,352,VALID,0,
2004-02-18, 02:56:00,VALID,915.817,VALID,0,VALID,100,VALID,-0.0169808,VALID,19.4439,VALID,352,VALID,0,
2004-02-18, 02:57:00,VALID,915.808,VALID,0,VALID,100,VALID,0.0169808,VALID,19.4181,VALID,352,VALID,0,
2004-02-18, 02:58:00,VALID,915.806,VALID,0,VALID,100,VALID,0,VALID,19.392,VALID,352,VALID,0,
2004-02-18, 02:59:00,VALID,915.786,VALID,0,VALID,100,VALID,0.0169808,VALID,19.3627,VALID,352,VALID,0,
2004-02-18, 03:00:00,VALID,915.785,VALID,0,VALID,100,VALID,0,VALID,19.3403,VALID,352,VALID,0,
2004-02-18, 03:01:00,VALID,915.782,VALID,0,VALID,100,VALID,0,VALID,19.3244,VALID,352,VALID,0,
2004-02-18, 03:02:00,VALID,915.767,VALID,0,VALID,100,VALID,-0.0169808,VALID,19.2884,VALID,352,VALID,0,
2004-02-18, 03:03:00,VALID,915.768,VALID,0,VALID,100,VALID,0,VALID,19.2631,VALID,68,VALID,0.395898,
2004-02-18, 03:04:00,VALID,915.763,VALID,0,VALID,100,VALID,0,VALID,19.2209,VALID,106,VALID,0.497869,
2004-02-18, 03:05:00,VALID,915.752,VALID,0,VALID,100,VALID,-0.0169808,VALID,19.2017,VALID,107,VALID,0.478561,
2004-02-18, 03:06:00,VALID,915.738,VALID,0,VALID,100,VALID,-0.0169808,VALID,19.2114,VALID,107,VALID,0.346112,
2004-02-18, 03:07:00,VALID,915.714,VALID,0,VALID,100,VALID,0,VALID,19.2017,VALID,107,VALID,0.248935,
2004-02-18, 03:08:00,VALID,915.699,VALID,0,VALID,100,VALID,0.0169808,VALID,19.1883,VALID,107,VALID,0.0805122,
2004-02-18, 03:09:00,VALID,915.701,VALID,0,VALID,100,VALID,0,VALID,19.1888,VALID,107,VALID,0,
2004-02-18, 03:10:00,VALID,915.687,VALID,0,VALID,100,VALID,0.0169808,VALID,19.1985,VALID,107,VALID,0,
2004-02-18, 03:11:00,VALID,915.664,VALID,0,VALID,100,VALID,-0.0169808,VALID,19.1881,VALID,107,VALID,0,
2004-02-18, 03:12:00,VALID,915.655,VALID,0,VALID,100,VALID,-0.0339617,VALID,19.2211,VALID,107,VALID,0,
2004-02-18, 03:13:00,VALID,915.639,VALID,0,VALID,100,VALID,0,VALID,19.234,VALID,107,VALID,0,
2004-02-18, 03:14:00,VALID,915.624,VALID,0,VALID,100,VALID,-0.0169808,VALID,19.2151,VALID,107,VALID,0,
2004-02-18, 03:15:00,VALID,915.606,VALID,0,VALID,100,VALID,-0.0509425,VALID,19.1833,VALID,107,VALID,0,
2004-02-18, 03:16:00,VALID,915.593,VALID,0,VALID,100,VALID,-0.0339617,VALID,19.1088,VALID,107,VALID,0,
2004-02-18, 03:17:00,VALID,915.59,VALID,0,VALID,100,VALID,-0.0169808,VALID,19.0664,VALID,107,VALID,0,
2004-02-18, 03:18:00,VALID,915.586,VALID,0,VALID,100,VALID,-0.0339617,VALID,19.0475,VALID,107,VALID,0,
2004-02-18, 03:19:00,VALID,915.564,VALID,0,VALID,100,VALID,-0.0339617,VALID,19.0343,VALID,107,VALID,0,
2004-02-18, 03:20:00,VALID,915.561,VALID,0,VALID,100,VALID,-0.0169808,VALID,19.0572,VALID,107,VALID,0,
2004-02-18, 03:21:00,VALID,915.547,VALID,0,VALID,100,VALID,-0.0169808,VALID,19.0728,VALID,107,VALID,0.111779,
2004-02-18, 03:22:00,VALID,915.527,VALID,0,VALID,100,VALID,-0.0679233,VALID,19.086,VALID,107,VALID,0.183333,
2004-02-18, 03:23:00,VALID,915.532,VALID,0,VALID,100,VALID,0,VALID,19.086,VALID,107,VALID,0.38125,
2004-02-18, 03:24:00,VALID,915.509,VALID,0,VALID,100,VALID,-0.0169808,VALID,19.0763,VALID,108,VALID,0.584263,
2004-02-18, 03:25:00,VALID,915.513,VALID,0,VALID,100,VALID,-0.0169808,VALID,19.0733,VALID,124,VALID,0.718023,
2004-02-18, 03:26:00,VALID,915.494,VALID,0,VALID,100,VALID,-0.0339617,VALID,19.0634,VALID,110,VALID,0.529891,
2004-02-18, 03:27:00,VALID,915.491,VALID,0,VALID,100,VALID,-0.0339617,VALID,19.0018,VALID,57,VALID,0.878736,
2004-02-18, 03:28:00,VALID,915.478,VALID,0,VALID,100,VALID,0,VALID,19.0406,VALID,68,VALID,1.10404,
2004-02-18, 03:29:00,VALID,915.456,VALID,0,VALID,100,VALID,0,VALID,19.0798,VALID,68,VALID,0.980469,
2004-02-18, 03:30:00,VALID,915.448,VALID,0,VALID,100,VALID,-0.0169808,VALID,19.0661,VALID,77,VALID,0.967076,
2004-02-18, 03:31:00,VALID,915.441,VALID,0,VALID,100,VALID,0,VALID,19.0927,VALID,98,VALID,0.980469,
2004-02-18, 03:32:00,VALID,915.441,VALID,0,VALID,100,VALID,0,VALID,19.1255,VALID,119,VALID,1.26007,
2004-02-18, 03:33:00,VALID,915.43,VALID,0,VALID,100,VALID,-0.0679233,VALID,19.1483,VALID,122,VALID,1.25462,
2004-02-18, 03:34:00,VALID,915.444,VALID,0,VALID,100,VALID,-0.0169808,VALID,19.1699,VALID,116,VALID,1,
2004-02-18, 03:35:00,VALID,915.445,VALID,0,VALID,100,VALID,0,VALID,19.2186,VALID,134,VALID,0.666548,
2004-02-18, 03:36:00,VALID,915.453,VALID,0,VALID,100,VALID,-0.0169808,VALID,19.2348,VALID,115,VALID,0.442472,
2004-02-18, 03:37:00,VALID,915.452,VALID,0,VALID,100,VALID,0,VALID,19.2509,VALID,113,VALID,0.496289,
2004-02-18, 03:38:00,VALID,915.466,VALID,0,VALID,100,VALID,-0.0169808,VALID,19.2735,VALID,137,VALID,0.557292,
2004-02-18, 03:39:00,VALID,915.462,VALID,0,VALID,100,VALID,-0.0339617,VALID,19.2961,VALID,137,VALID,0.666606,
2004-02-18, 03:40:00,VALID,915.466,VALID,0,VALID,100,VALID,0,VALID,19.3286,VALID,142,VALID,0.632068,
2004-02-18, 03:41:00,VALID,915.476,VALID,0,VALID,100,VALID,-0.0339617,VALID,19.3413,VALID,144,VALID,0.71596,
2004-02-18, 03:42:00,VALID,915.482,VALID,0,VALID,100,VALID,-0.0169808,VALID,19.351,VALID,147,VALID,0.543786,
2004-02-18, 03:43:00,VALID,915.492,VALID,0,VALID,100,VALID,-0.0169808,VALID,19.3671,VALID,147,VALID,0.197027,
2004-02-18, 03:44:00,VALID,915.49,VALID,0,VALID,100,VALID,0.0509425,VALID,19.3925,VALID,147,VALID,0.00372024,
2004-02-18, 03:45:00,VALID,915.49,VALID,0,VALID,100,VALID,0.101885,VALID,19.3975,VALID,147,VALID,0.228659,
2004-02-18, 03:46:00,VALID,915.494,VALID,0,VALID,100,VALID,0.0849042,VALID,19.424,VALID,147,VALID,0.387109,